Weather History for Taylorville, IL

Change the Weather History Date:

Friday, January 3, 2014

  Actual Average (KSPI) Record (KSPI)
Temperature  
Mean Temperature 10 °F 27 °F  
Max Temperature 23 °F 35 °F 63 °F (1880)
Min Temperature -4 °F 19 °F -9 °F (1940)
Degree Days  
Heating Degree Days 56 38  
Month to date heating degree days 114  
Since 1 July heating degree days 2254  
Cooling Degree Days 0 0  
Month to date cooling degree days 0  
Year to date cooling degree days 0  
Moisture  
Dew Point 5 °F    
Average Humidity 76    
Maximum Humidity 92    
Minimum Humidity 63    
Precipitation  
Precipitation 0.00 in 0.07 in 1.80 in (1897)
Month to date precipitation 0.21  
Year to date precipitation 0.21  
Snow  
Snow 0.00 in 0.20 in 1.90 in (1971)
Month to date snowfall 0.6  
Since 1 July snowfall 6.8  
Snow Depth -    
Sea Level Pressure  
Sea Level Pressure 30.30 in    
Wind  
Wind Speed 8 mph (South)    
Max Wind Speed 28 mph    
Max Gust Speed 37 mph    
Visibility 10 miles    
Events      
T = Trace of Precipitation, MM = Missing Value Source: NWS Daily Summary

Daily Weather History Graph

Daily Weather History Graph

Search for Another Location

Airport:

Trip Planner

Search our weather history database for the weather conditions in past years. The results will help you decide how hot, cold, wet, or windy it might be!

Date:

Astronomy

Jan. 03, 2014 Rise Set
Actual Time 7:18 AM CST 4:45 PM CST
Civil Twilight 6:47 AM CST 5:16 PM CST
Nautical Twilight 6:14 AM CST 5:49 PM CST
Astronomical Twilight 5:41 AM CST 6:22 PM CST
Moon 8:44 AM CST (1/3) 7:54 PM CST (1/3)
Length of Visible Light 10h 28m
Length of Day
9h 27m
Waxing Crescent, 8% of the Moon is Illuminated
Jan 3
Waxing Crescent
Jan 7
First Quarter
Jan 15
Full
Jan 23
Last Quarter
Jan 30
New

Hourly Weather History & Observations

Time (CST) Temp. Windchill Dew Point Humidity Pressure Visibility Wind Dir Wind Speed Gust Speed Precip Events Conditions
12:15 AM 5.0 °F -4.1 °F -0.4 °F 78% 30.44 in 10.0 mi NW 4.6 mph - N/A   Clear
12:35 AM 3.2 °F -6.2 °F -0.4 °F 85% 30.44 in 10.0 mi NW 4.6 mph - N/A   Clear
12:55 AM 1.4 °F -8.3 °F -2.2 °F 85% 30.44 in 10.0 mi NW 4.6 mph - N/A   Clear
1:15 AM 3.2 °F -4.2 °F -0.4 °F 85% 30.44 in 10.0 mi NNW 3.5 mph - N/A   Clear
1:35 AM 3.2 °F -4.2 °F -0.4 °F 85% 30.45 in 10.0 mi NW 3.5 mph - N/A   Clear
1:55 AM 1.4 °F - -0.4 °F 92% 30.45 in 10.0 mi Calm Calm - N/A   Clear
2:15 AM 1.4 °F - -0.4 °F 92% 30.46 in 10.0 mi Calm Calm - N/A   Clear
2:35 AM -0.4 °F -8.3 °F -4.0 °F 85% 30.47 in 10.0 mi SW 3.5 mph - N/A   Clear
2:55 AM -0.4 °F -8.3 °F -4.0 °F 85% 30.47 in 10.0 mi WSW 3.5 mph - N/A   Clear
3:15 AM -0.4 °F - -4.0 °F 85% 30.46 in 10.0 mi Calm Calm - N/A   Clear
3:35 AM -0.4 °F -8.3 °F -4.0 °F 85% 30.46 in 10.0 mi WSW 3.5 mph - N/A   Clear
3:55 AM -2.2 °F -12.5 °F -5.8 °F 85% 30.46 in 10.0 mi WSW 4.6 mph - N/A   Clear
4:15 AM -2.2 °F -10.4 °F -5.8 °F 85% 30.46 in 10.0 mi WSW 3.5 mph - N/A   Clear
4:35 AM -0.4 °F - -4.0 °F 85% 30.46 in 10.0 mi Calm Calm - N/A   Clear
4:55 AM -0.4 °F - -4.0 °F 85% 30.46 in 10.0 mi Calm Calm - N/A   Clear
5:15 AM -2.2 °F -10.4 °F -5.8 °F 85% 30.46 in 10.0 mi West 3.5 mph - N/A   Clear
5:35 AM -4.0 °F - -7.6 °F 85% 30.46 in 10.0 mi Calm Calm - N/A   Clear
5:55 AM -0.4 °F - -5.8 °F 78% 30.47 in 10.0 mi Calm Calm - N/A   Clear
6:15 AM -2.2 °F - -5.8 °F 85% 30.47 in 10.0 mi Calm Calm - N/A   Clear
6:35 AM -0.4 °F - -5.8 °F 78% 30.46 in 10.0 mi Calm Calm - N/A   Clear
6:55 AM -2.2 °F - -5.8 °F 85% 30.46 in 10.0 mi Calm Calm - N/A   Clear
7:15 AM -4.0 °F -12.4 °F -7.6 °F 85% 30.47 in 10.0 mi South 3.5 mph - N/A   Clear
7:35 AM -4.0 °F -12.4 °F -7.6 °F 85% 30.48 in 10.0 mi South 3.5 mph - N/A   Clear
7:55 AM -2.2 °F -10.4 °F -5.8 °F 85% 30.47 in 10.0 mi South 3.5 mph - N/A   Clear
8:15 AM -2.2 °F -12.5 °F -5.8 °F 85% 30.47 in 10.0 mi South 4.6 mph - N/A   Clear
8:35 AM -0.4 °F -8.3 °F -4.0 °F 85% 30.47 in 10.0 mi South 3.5 mph - N/A   Clear
8:55 AM 1.4 °F -8.3 °F -2.2 °F 85% 30.47 in 10.0 mi South 4.6 mph - N/A   Clear
9:15 AM 3.2 °F -9.1 °F -0.4 °F 85% 30.46 in 10.0 mi South 6.9 mph - N/A   Clear
9:35 AM 5.0 °F -10.0 °F 1.4 °F 85% 30.46 in 10.0 mi South 10.4 mph - N/A   Clear
9:55 AM 6.8 °F -7.8 °F 3.2 °F 85% 30.45 in 10.0 mi South 10.4 mph - N/A   Clear
10:15 AM 8.6 °F -6.3 °F 3.2 °F 79% 30.44 in 10.0 mi South 11.5 mph - N/A   Clear
10:35 AM 12.2 °F -2.5 °F 3.2 °F 67% 30.43 in 10.0 mi South 12.7 mph - N/A   Clear
10:55 AM 12.2 °F -0.2 °F 5.0 °F 73% 30.41 in 10.0 mi South 9.2 mph - N/A   Clear
11:15 AM 12.2 °F -1.0 °F 5.0 °F 73% 30.40 in 10.0 mi SSE 10.4 mph - N/A   Clear
11:35 AM 14.0 °F 2.9 °F 5.0 °F 67% 30.38 in 10.0 mi SSE 8.1 mph - N/A   Clear
11:55 AM 14.0 °F 1.2 °F 6.8 °F 73% 30.36 in 10.0 mi SSE 10.4 mph 16.1 mph N/A   Clear
12:15 PM 14.0 °F 0.5 °F 6.8 °F 73% 30.34 in 10.0 mi SSE 11.5 mph 16.1 mph N/A   Clear
12:35 PM 15.8 °F 2.1 °F 8.6 °F 73% 30.33 in 10.0 mi SSE 12.7 mph - N/A   Clear
12:55 PM 17.6 °F 3.7 °F 8.6 °F 68% 30.32 in 10.0 mi SSE 13.8 mph 19.6 mph N/A   Clear
1:15 PM 17.6 °F 3.2 °F 8.6 °F 68% 30.30 in 10.0 mi SSE 15.0 mph - N/A   Clear
1:35 PM 17.6 °F 2.2 °F 10.4 °F 73% 30.27 in 10.0 mi SSE 17.3 mph 21.9 mph N/A   Clear
1:55 PM 19.4 °F 5.5 °F 10.4 °F 68% 30.26 in 10.0 mi SSE 15.0 mph - N/A   Scattered Clouds
2:15 PM 19.4 °F 4.1 °F 10.4 °F 68% 30.24 in 10.0 mi SSE 18.4 mph 25.3 mph N/A   Scattered Clouds
2:35 PM 19.4 °F 3.2 °F 10.4 °F 68% 30.22 in 10.0 mi SSE 20.7 mph 26.5 mph N/A   Clear
2:55 PM 21.2 °F 7.3 °F 10.4 °F 63% 30.23 in 10.0 mi SSE 16.1 mph 23.0 mph N/A   Clear
3:15 PM 21.2 °F 6.8 °F 12.2 °F 68% 30.23 in 10.0 mi South 17.3 mph 23.0 mph N/A   Clear
3:35 PM 21.2 °F 6.8 °F 12.2 °F 68% 30.22 in 10.0 mi South 17.3 mph - N/A   Clear
3:55 PM 21.2 °F 8.9 °F 12.2 °F 68% 30.22 in 10.0 mi South 12.7 mph - N/A   Clear
4:15 PM 21.2 °F 7.3 °F 12.2 °F 68% 30.20 in 10.0 mi South 16.1 mph - N/A   Clear
4:35 PM 21.2 °F 7.8 °F 12.2 °F 68% 30.20 in 10.0 mi SSE 15.0 mph - N/A   Clear
4:55 PM 21.2 °F 8.3 °F 12.2 °F 68% 30.19 in 10.0 mi SSE 13.8 mph - N/A   Clear
5:15 PM 21.2 °F 7.8 °F 12.2 °F 68% 30.18 in 10.0 mi SSE 15.0 mph - N/A   Clear
5:35 PM 21.2 °F 7.3 °F 12.2 °F 68% 30.16 in 10.0 mi SSE 16.1 mph - N/A   Clear
5:55 PM 21.2 °F 6.8 °F 12.2 °F 68% 30.15 in 10.0 mi SSE 17.3 mph - N/A   Clear
6:15 PM 21.2 °F 6.4 °F 12.2 °F 68% 30.14 in 10.0 mi SSE 18.4 mph 25.3 mph N/A   Clear
6:35 PM 21.2 °F 5.6 °F 12.2 °F 68% 30.13 in 10.0 mi SSE 20.7 mph 25.3 mph N/A   Clear
6:55 PM 21.2 °F 6.0 °F 12.2 °F 68% 30.13 in 10.0 mi SSE 19.6 mph 27.6 mph N/A   Clear
7:15 PM 21.2 °F 5.6 °F 12.2 °F 68% 30.11 in 10.0 mi South 20.7 mph 26.5 mph N/A   Clear
7:35 PM 21.2 °F 6.4 °F 12.2 °F 68% 30.10 in 10.0 mi South 18.4 mph 25.3 mph N/A   Clear
7:55 PM 21.2 °F 5.2 °F 12.2 °F 68% 30.08 in 10.0 mi South 21.9 mph 31.1 mph N/A   Clear
8:15 PM 21.2 °F 4.9 °F 12.2 °F 68% 30.07 in 10.0 mi South 23.0 mph 28.8 mph N/A   Clear
8:35 PM 21.2 °F 4.2 °F 14.0 °F 74% 30.06 in 10.0 mi South 25.3 mph 31.1 mph N/A   Clear
8:55 PM 21.2 °F 4.2 °F 14.0 °F 74% 30.05 in 7.0 mi South 25.3 mph 34.5 mph N/A   Clear
9:15 PM 21.2 °F 3.9 °F 14.0 °F 74% 30.03 in 10.0 mi South 26.5 mph 33.4 mph N/A   Clear
9:35 PM 21.2 °F 3.5 °F 14.0 °F 74% 30.03 in 10.0 mi South 27.6 mph 35.7 mph N/A   Clear
9:55 PM 21.2 °F 4.5 °F 14.0 °F 74% 30.02 in 7.0 mi South 24.2 mph 35.7 mph N/A   Clear
10:15 PM 21.2 °F 4.2 °F 14.0 °F 74% 30.02 in 7.0 mi South 25.3 mph 34.5 mph N/A   Clear
10:35 PM 21.2 °F 4.5 °F 14.0 °F 74% 30.01 in 10.0 mi South 24.2 mph 32.2 mph N/A   Clear
10:55 PM 21.2 °F 5.2 °F 14.0 °F 74% 30.01 in 10.0 mi South 21.9 mph 33.4 mph N/A   Clear
11:15 PM 23.0 °F 6.0 °F 14.0 °F 68% 30.00 in 10.0 mi South 27.6 mph 36.8 mph N/A   Clear
11:35 PM 23.0 °F 6.9 °F 14.0 °F 68% 29.99 in 10.0 mi South 24.2 mph 31.1 mph N/A   Clear
11:55 PM 21.2 °F 4.2 °F 14.0 °F 74% 29.99 in 10.0 mi South 25.3 mph 29.9 mph N/A   Clear